Terminal Aerodrome Forecast
Issued by NWS Portland, OR

Home | Current Version | Previous Version | Text Only | Print | Product List | Glossary On
Versions: 1 2 3 4 5 6 7 8 9 10 11 12 13 14 15 16 17 18 19 20 21 22 23 24 25 26 27 28 29 30 31 32 33 34 35 36 37 38 39 40 41 42 43 44 45 46 47 48 49 50
000
FTUS46 KPQR 280232 AAA
TAFPDX
TAF AMD
KPDX 280232Z 2803/2824 18009KT 6SM -RA BR FEW015 BKN025 OVC040
      TEMPO 2803/2804 P6SM -SHRA SCT025 OVC040
     FM280400 24005KT P6SM -SHRA SCT030 BKN040=

USA.gov is the U.S. government's official web portal to all federal, state and local government web resources and services.